Location: Ljubljana
(46.0550°N, 14.5140°E)
Time: 23:57:48
(UTC+01:00)

Tiangong 2 - Visible Passes

Search period start: 20 February 2018 00:00
Search period end: 02 March 2018 00:00
Orbit: 384 x 388 km, 42.8° (Epoch: 20 February)

Date Brightness Start Highest point End Pass type
(mag) Time Alt. Az. Time Alt. Az. Time Alt. Az.
20 Feb 2.3 18:13:51 10° W 18:16:49 36° SSW 18:19:46 10° SE visible
20 Feb 3.9 19:51:23 10° WSW 19:52:35 13° SW 19:52:35 13° SW visible
21 Feb 3.3 18:51:54 10° WSW 18:54:19 20° SSW 18:56:40 10° SSE visible
23 Feb 3.9 18:31:16 10° WSW 18:32:54 13° SSW 18:34:31 10° S visible
